Photometre #72[NE_1.6] AgiaMarina_Xyliatou AOT

File : 20190924_72.hum

24/09/2019,04:21:02,TEMP=18.4,BA=5.76,STAT.A=4.0,ExtBa=14.10
24/09/2019,04:24:10,TEMP=18.8,BA=5.76,STAT.A=4.0,ExtBa=13.90
24/09/2019,04:27:49,TEMP=19.1,BA=5.76,STAT.A=4.0,ExtBa=14.00
24/09/2019,04:32:10,TEMP=19.3,BA=5.76,STAT.A=4.0,ExtBa=13.80
24/09/2019,04:37:24,TEMP=19.7,BA=5.76,STAT.A=4.0,ExtBa=13.60
24/09/2019,04:43:50,TEMP=20.2,BA=5.76,STAT.A=4.0,ExtBa=13.90
24/09/2019,04:51:58,TEMP=20.9,BA=5.76,STAT.B=4.0,ExtBa=13.50
24/09/2019,04:55:51,TEMP=21.4,BA=5.76,STAT.A=4.0,ExtBa=13.90
24/09/2019,05:00:11,TEMP=21.7,BA=5.72,STAT.A=4.0,ExtBa=13.80
24/09/2019,05:05:04,TEMP=21.9,BA=5.72,STAT.A=5.0,ExtBa=13.50
24/09/2019,05:10:36,TEMP=22.3,BA=5.76,STAT.A=5.0,ExtBa=13.80
24/09/2019,05:16:57,TEMP=22.8,BA=5.76,STAT.C=5.0,ExtBa=13.80
24/09/2019,05:24:19,TEMP=23.3,BA=5.76,STAT.A=5.0,ExtBa=13.90
24/09/2019,05:32:57,TEMP=23.7,BA=5.76,STAT.A=5.0,ExtBa=14.00
24/09/2019,05:43:14,TEMP=24.5,BA=5.76,STAT.A=5.0,ExtBa=13.40
24/09/2019,05:55:47,TEMP=25.2,BA=5.76,STAT.A=5.0,ExtBa=13.80
24/09/2019,06:11:29,TEMP=26.0,BA=5.72,STAT.B=5.0,ExtBa=14.00
24/09/2019,06:25:31,TEMP=26.8,BA=5.72,STAT.D=5.0,ExtBa=13.90
24/09/2019,06:40:33,TEMP=27.0,BA=5.72,STAT.F,ExtBa=14.00
24/09/2019,06:55:31,TEMP=27.6,BA=5.72,STAT.D=5.0,ExtBa=13.90
24/09/2019,07:10:32,TEMP=28.0,BA=5.72,STAT.D=5.0,ExtBa=13.40
24/09/2019,07:25:32,TEMP=28.6,BA=5.72,STAT.D=5.0,ExtBa=13.70
24/09/2019,07:27:03,TEMP=29.0,BA=5.72,STAT.b=5.0
24/09/2019,07:40:50,TEMP=29.4,BA=5.72,STAT.F,ExtBa=13.80
24/09/2019,07:55:32,TEMP=29.7,BA=5.72,STAT.D=5.0,ExtBa=13.90
24/09/2019,08:10:32,TEMP=30.2,BA=5.72,STAT.D=5.0,ExtBa=13.40
24/09/2019,08:25:32,TEMP=30.4,BA=5.72,STAT.D=5.0,ExtBa=13.50
24/09/2019,08:40:33,TEMP=31.1,BA=5.68,STAT.F,ExtBa=13.50
24/09/2019,08:55:32,TEMP=31.8,BA=5.68,STAT.D=5.0,ExtBa=14.40
24/09/2019,09:10:32,TEMP=31.8,BA=5.60,STAT.D=5.0,ExtBa=13.80
24/09/2019,09:25:32,TEMP=31.8,BA=5.60,STAT.D=5.0,ExtBa=13.80
24/09/2019,09:40:34,TEMP=32.1,BA=5.56,STAT.F,ExtBa=13.70
24/09/2019,09:55:32,TEMP=32.7,BA=5.56,STAT.D=5.0,ExtBa=13.50
24/09/2019,10:10:32,TEMP=32.6,BA=5.56,STAT.D=5.0,ExtBa=13.60
24/09/2019,10:25:32,TEMP=32.4,BA=5.56,STAT.D=5.0,ExtBa=13.70
24/09/2019,10:40:34,TEMP=32.0,BA=5.56,STAT.F,ExtBa=14.00
24/09/2019,10:55:32,TEMP=31.1,BA=5.56,STAT.D=5.0,ExtBa=14.10
24/09/2019,11:10:32,TEMP=30.6,BA=5.56,STAT.D=5.0,ExtBa=13.80
24/09/2019,11:25:32,TEMP=30.5,BA=5.56,STAT.D=5.0,ExtBa=13.50
24/09/2019,11:40:33,TEMP=29.7,BA=5.56,STAT.F,ExtBa=14.30
24/09/2019,11:55:32,TEMP=29.9,BA=5.48,STAT.D=5.0,ExtBa=13.80
24/09/2019,12:10:32,TEMP=29.9,BA=5.60,STAT.D=5.0,ExtBa=13.60
24/09/2019,12:25:31,TEMP=29.8,BA=5.64,STAT.D=5.0,ExtBa=13.90
24/09/2019,12:40:33,TEMP=29.9,BA=5.64,STAT.F,ExtBa=13.90
24/09/2019,12:55:31,TEMP=29.9,BA=5.64,STAT.D=5.0,ExtBa=13.90
24/09/2019,13:09:37,TEMP=29.0,BA=5.64,STAT.B=5.0,ExtBa=13.70
24/09/2019,13:25:17,TEMP=28.4,BA=5.56,STAT.A=5.0,ExtBa=13.80
24/09/2019,13:37:51,TEMP=28.2,BA=5.64,STAT.A=5.0,ExtBa=13.30
24/09/2019,13:48:07,TEMP=27.8,BA=5.60,STAT.A=5.0,ExtBa=14.10
24/09/2019,13:56:45,TEMP=27.8,BA=5.60,STAT.A=5.0,ExtBa=13.50
24/09/2019,14:04:07,TEMP=27.6,BA=5.64,STAT.C=5.0,ExtBa=13.90
24/09/2019,14:10:28,TEMP=27.2,BA=5.72,STAT.A=5.0,ExtBa=13.60
24/09/2019,14:16:00,TEMP=27.0,BA=5.72,STAT.A=5.0,ExtBa=13.50
24/09/2019,14:20:53,TEMP=26.6,BA=5.72,STAT.A=5.0,ExtBa=13.90
24/09/2019,14:25:13,TEMP=26.6,BA=5.72,STAT.A=5.0,ExtBa=13.60
24/09/2019,14:29:06,TEMP=26.4,BA=5.72,STAT.B=5.0,ExtBa=13.50
24/09/2019,14:37:14,TEMP=25.9,BA=5.52,STAT.A=5.0,ExtBa=13.70
24/09/2019,14:43:40,TEMP=25.6,BA=5.68,STAT.A=5.0,ExtBa=13.60
24/09/2019,14:48:54,TEMP=25.4,BA=5.68,STAT.A=5.0,ExtBa=13.90
24/09/2019,14:53:15,TEMP=25.3,BA=5.52,STAT.A=5.0,ExtBa=13.70
24/09/2019,14:56:54,TEMP=25.2,BA=5.52,STAT.A=5.0,ExtBa=13.10
24/09/2019,15:00:02,TEMP=25.2,BA=5.52,STAT.A=5.0,ExtBa=13.70